Index of /20260506/WXO-DD/model_gdps/15km/12/192
Name Last modified Size Description
Parent Directory -
20260506T12Z_MSC_GDPS_AbsoluteVorticity_IsbL-0200_LatLon0.15_PT192H.grib2 2026-05-06 19:04 1.2M
20260506T12Z_MSC_GDPS_AbsoluteVorticity_IsbL-0250_LatLon0.15_PT192H.grib2 2026-05-06 19:04 1.3M
20260506T12Z_MSC_GDPS_AbsoluteVorticity_IsbL-0500_LatLon0.15_PT192H.grib2 2026-05-06 19:04 1.2M
20260506T12Z_MSC_GDPS_AbsoluteVorticity_IsbL-0700_LatLon0.15_PT192H.grib2 2026-05-06 19:04 1.3M
20260506T12Z_MSC_GDPS_AbsoluteVorticity_IsbL-0850_LatLon0.15_PT192H.grib2 2026-05-06 19:04 1.6M
20260506T12Z_MSC_GDPS_AirTemp-Max_AGL-2m_LatLon0.15_PT192H.grib2 2026-05-06 19:04 741K
20260506T12Z_MSC_GDPS_AirTemp-Min_AGL-2m_LatLon0.15_PT192H.grib2 2026-05-06 19:04 790K
20260506T12Z_MSC_GDPS_AirTemp_AGL-120m_LatLon0.15_PT192H.grib2 2026-05-06 19:04 909K
20260506T12Z_MSC_GDPS_AirTemp_AGL-2m_LatLon0.15_PT192H.grib2 2026-05-06 19:04 1.0M
20260506T12Z_MSC_GDPS_AirTemp_AGL-40m_LatLon0.15_PT192H.grib2 2026-05-06 19:04 809K
20260506T12Z_MSC_GDPS_AirTemp_AGL-80m_LatLon0.15_PT192H.grib2 2026-05-06 19:04 917K
20260506T12Z_MSC_GDPS_AirTemp_IsbL-0001_LatLon0.15_PT192H.grib2 2026-05-06 19:04 673K
20260506T12Z_MSC_GDPS_AirTemp_IsbL-0005_LatLon0.15_PT192H.grib2 2026-05-06 19:04 540K
20260506T12Z_MSC_GDPS_AirTemp_IsbL-0010_LatLon0.15_PT192H.grib2 2026-05-06 19:04 701K
20260506T12Z_MSC_GDPS_AirTemp_IsbL-0020_LatLon0.15_PT192H.grib2 2026-05-06 19:04 788K
20260506T12Z_MSC_GDPS_AirTemp_IsbL-0030_LatLon0.15_PT192H.grib2 2026-05-06 19:04 836K
20260506T12Z_MSC_GDPS_AirTemp_IsbL-0050_LatLon0.15_PT192H.grib2 2026-05-06 19:04 879K
20260506T12Z_MSC_GDPS_AirTemp_IsbL-0100_LatLon0.15_PT192H.grib2 2026-05-06 19:04 957K
20260506T12Z_MSC_GDPS_AirTemp_IsbL-0150_LatLon0.15_PT192H.grib2 2026-05-06 19:04 1.0M
20260506T12Z_MSC_GDPS_AirTemp_IsbL-0175_LatLon0.15_PT192H.grib2 2026-05-06 19:04 967K
20260506T12Z_MSC_GDPS_AirTemp_IsbL-0200_LatLon0.15_PT192H.grib2 2026-05-06 19:04 1.0M
20260506T12Z_MSC_GDPS_AirTemp_IsbL-0225_LatLon0.15_PT192H.grib2 2026-05-06 19:04 1.0M
20260506T12Z_MSC_GDPS_AirTemp_IsbL-0250_LatLon0.15_PT192H.grib2 2026-05-06 19:04 1.0M
20260506T12Z_MSC_GDPS_AirTemp_IsbL-0275_LatLon0.15_PT192H.grib2 2026-05-06 19:04 1.0M
20260506T12Z_MSC_GDPS_AirTemp_IsbL-0300_LatLon0.15_PT192H.grib2 2026-05-06 19:04 1.0M
20260506T12Z_MSC_GDPS_AirTemp_IsbL-0350_LatLon0.15_PT192H.grib2 2026-05-06 19:04 937K
20260506T12Z_MSC_GDPS_AirTemp_IsbL-0400_LatLon0.15_PT192H.grib2 2026-05-06 19:04 953K
20260506T12Z_MSC_GDPS_AirTemp_IsbL-0450_LatLon0.15_PT192H.grib2 2026-05-06 19:04 1.0M
20260506T12Z_MSC_GDPS_AirTemp_IsbL-0500_LatLon0.15_PT192H.grib2 2026-05-06 19:04 1.0M
20260506T12Z_MSC_GDPS_AirTemp_IsbL-0550_LatLon0.15_PT192H.grib2 2026-05-06 19:04 809K
20260506T12Z_MSC_GDPS_AirTemp_IsbL-0600_LatLon0.15_PT192H.grib2 2026-05-06 19:04 899K
20260506T12Z_MSC_GDPS_AirTemp_IsbL-0650_LatLon0.15_PT192H.grib2 2026-05-06 19:04 927K
20260506T12Z_MSC_GDPS_AirTemp_IsbL-0700_LatLon0.15_PT192H.grib2 2026-05-06 19:04 959K
20260506T12Z_MSC_GDPS_AirTemp_IsbL-0750_LatLon0.15_PT192H.grib2 2026-05-06 19:04 1.0M
20260506T12Z_MSC_GDPS_AirTemp_IsbL-0800_LatLon0.15_PT192H.grib2 2026-05-06 19:04 1.1M
20260506T12Z_MSC_GDPS_AirTemp_IsbL-0850_LatLon0.15_PT192H.grib2 2026-05-06 19:04 1.1M
20260506T12Z_MSC_GDPS_AirTemp_IsbL-0875_LatLon0.15_PT192H.grib2 2026-05-06 19:04 1.1M
20260506T12Z_MSC_GDPS_AirTemp_IsbL-0900_LatLon0.15_PT192H.grib2 2026-05-06 19:04 1.1M
20260506T12Z_MSC_GDPS_AirTemp_IsbL-0925_LatLon0.15_PT192H.grib2 2026-05-06 19:04 1.1M
20260506T12Z_MSC_GDPS_AirTemp_IsbL-0950_LatLon0.15_PT192H.grib2 2026-05-06 19:04 1.1M
20260506T12Z_MSC_GDPS_AirTemp_IsbL-0970_LatLon0.15_PT192H.grib2 2026-05-06 19:04 1.2M
20260506T12Z_MSC_GDPS_AirTemp_IsbL-0985_LatLon0.15_PT192H.grib2 2026-05-06 19:04 1.1M
20260506T12Z_MSC_GDPS_AirTemp_IsbL-1000_LatLon0.15_PT192H.grib2 2026-05-06 19:04 1.1M
20260506T12Z_MSC_GDPS_AirTemp_IsbL-1015_LatLon0.15_PT192H.grib2 2026-05-06 19:04 1.1M
20260506T12Z_MSC_GDPS_Albedo_Sfc_LatLon0.15_PT192H.grib2 2026-05-06 19:04 240K
20260506T12Z_MSC_GDPS_CAPE_Sfc_LatLon0.15_PT192H.grib2 2026-05-06 19:04 3.9M
20260506T12Z_MSC_GDPS_CIN_Sfc_LatLon0.15_PT192H.grib2 2026-05-06 19:04 2.9M
20260506T12Z_MSC_GDPS_CloudWater_EAtm_LatLon0.15_PT192H.grib2 2026-05-06 19:04 545K
20260506T12Z_MSC_GDPS_ConvectivePrecip-Accum_Sfc_LatLon0.15_PT192H.grib2 2026-05-06 19:04 3.9M
20260506T12Z_MSC_GDPS_DewPointDepression_AGL-2m_LatLon0.15_PT192H.grib2 2026-05-06 19:04 751K
20260506T12Z_MSC_GDPS_DewPointDepression_IsbL-0010_LatLon0.15_PT192H.grib2 2026-05-06 19:04 91K
20260506T12Z_MSC_GDPS_DewPointDepression_IsbL-0020_LatLon0.15_PT192H.grib2 2026-05-06 19:04 87K
20260506T12Z_MSC_GDPS_DewPointDepression_IsbL-0030_LatLon0.15_PT192H.grib2 2026-05-06 19:04 103K
20260506T12Z_MSC_GDPS_DewPointDepression_IsbL-0050_LatLon0.15_PT192H.grib2 2026-05-06 19:04 376K
20260506T12Z_MSC_GDPS_DewPointDepression_IsbL-0100_LatLon0.15_PT192H.grib2 2026-05-06 19:04 391K
20260506T12Z_MSC_GDPS_DewPointDepression_IsbL-0150_LatLon0.15_PT192H.grib2 2026-05-06 19:04 509K
20260506T12Z_MSC_GDPS_DewPointDepression_IsbL-0175_LatLon0.15_PT192H.grib2 2026-05-06 19:04 608K
20260506T12Z_MSC_GDPS_DewPointDepression_IsbL-0200_LatLon0.15_PT192H.grib2 2026-05-06 19:04 701K
20260506T12Z_MSC_GDPS_DewPointDepression_IsbL-0225_LatLon0.15_PT192H.grib2 2026-05-06 19:04 796K
20260506T12Z_MSC_GDPS_DewPointDepression_IsbL-0250_LatLon0.15_PT192H.grib2 2026-05-06 19:04 885K
20260506T12Z_MSC_GDPS_DewPointDepression_IsbL-0275_LatLon0.15_PT192H.grib2 2026-05-06 19:04 901K
20260506T12Z_MSC_GDPS_DewPointDepression_IsbL-0300_LatLon0.15_PT192H.grib2 2026-05-06 19:04 940K
20260506T12Z_MSC_GDPS_DewPointDepression_IsbL-0350_LatLon0.15_PT192H.grib2 2026-05-06 19:04 966K
20260506T12Z_MSC_GDPS_DewPointDepression_IsbL-0400_LatLon0.15_PT192H.grib2 2026-05-06 19:04 1.0M
20260506T12Z_MSC_GDPS_DewPointDepression_IsbL-0450_LatLon0.15_PT192H.grib2 2026-05-06 19:04 1.0M
20260506T12Z_MSC_GDPS_DewPointDepression_IsbL-0500_LatLon0.15_PT192H.grib2 2026-05-06 19:04 1.0M
20260506T12Z_MSC_GDPS_DewPointDepression_IsbL-0550_LatLon0.15_PT192H.grib2 2026-05-06 19:04 1.0M
20260506T12Z_MSC_GDPS_DewPointDepression_IsbL-0600_LatLon0.15_PT192H.grib2 2026-05-06 19:04 1.1M
20260506T12Z_MSC_GDPS_DewPointDepression_IsbL-0650_LatLon0.15_PT192H.grib2 2026-05-06 19:04 1.1M
20260506T12Z_MSC_GDPS_DewPointDepression_IsbL-0700_LatLon0.15_PT192H.grib2 2026-05-06 19:04 1.1M
20260506T12Z_MSC_GDPS_DewPointDepression_IsbL-0750_LatLon0.15_PT192H.grib2 2026-05-06 19:04 1.1M
20260506T12Z_MSC_GDPS_DewPointDepression_IsbL-0800_LatLon0.15_PT192H.grib2 2026-05-06 19:04 1.2M
20260506T12Z_MSC_GDPS_DewPointDepression_IsbL-0850_LatLon0.15_PT192H.grib2 2026-05-06 19:04 1.2M
20260506T12Z_MSC_GDPS_DewPointDepression_IsbL-0875_LatLon0.15_PT192H.grib2 2026-05-06 19:04 1.1M
20260506T12Z_MSC_GDPS_DewPointDepression_IsbL-0900_LatLon0.15_PT192H.grib2 2026-05-06 19:04 1.1M
20260506T12Z_MSC_GDPS_DewPointDepression_IsbL-0925_LatLon0.15_PT192H.grib2 2026-05-06 19:04 1.0M
20260506T12Z_MSC_GDPS_DewPointDepression_IsbL-0950_LatLon0.15_PT192H.grib2 2026-05-06 19:04 1.0M
20260506T12Z_MSC_GDPS_DewPointDepression_IsbL-0970_LatLon0.15_PT192H.grib2 2026-05-06 19:04 971K
20260506T12Z_MSC_GDPS_DewPointDepression_IsbL-0985_LatLon0.15_PT192H.grib2 2026-05-06 19:04 962K
20260506T12Z_MSC_GDPS_DewPointDepression_IsbL-1000_LatLon0.15_PT192H.grib2 2026-05-06 19:04 952K
20260506T12Z_MSC_GDPS_DewPointDepression_IsbL-1015_LatLon0.15_PT192H.grib2 2026-05-06 19:04 894K
20260506T12Z_MSC_GDPS_DewPoint_AGL-2m_LatLon0.15_PT192H.grib2 2026-05-06 19:04 607K
20260506T12Z_MSC_GDPS_DownwardLongwaveRadiationFlux-Accum_Sfc_LatLon0.15_PT192H.grib2 2026-05-06 19:04 665K
20260506T12Z_MSC_GDPS_DownwardShortwaveRadiationFlux-Accum_NTAtm_LatLon0.15_PT192H.grib2 2026-05-06 19:04 199K
20260506T12Z_MSC_GDPS_DownwardShortwaveRadiationFlux-Accum_Sfc_LatLon0.15_PT192H.grib2 2026-05-06 19:04 869K
20260506T12Z_MSC_GDPS_FreezingRain-Accum12h_Sfc_LatLon0.15_PT192H.grib2 2026-05-06 19:04 143K
20260506T12Z_MSC_GDPS_FreezingRain-Accum24h_Sfc_LatLon0.15_PT192H.grib2 2026-05-06 19:04 212K
20260506T12Z_MSC_GDPS_FreezingRain-Accum6h_Sfc_LatLon0.15_PT192H.grib2 2026-05-06 19:04 112K
20260506T12Z_MSC_GDPS_FreezingRain-Accum_Sfc_LatLon0.15_PT192H.grib2 2026-05-06 19:04 504K
20260506T12Z_MSC_GDPS_GeopotentialHeight_IsbL-0001_LatLon0.15_PT192H.grib2 2026-05-06 19:04 454K
20260506T12Z_MSC_GDPS_GeopotentialHeight_IsbL-0005_LatLon0.15_PT192H.grib2 2026-05-06 19:04 358K
20260506T12Z_MSC_GDPS_GeopotentialHeight_IsbL-0010_LatLon0.15_PT192H.grib2 2026-05-06 19:04 485K
20260506T12Z_MSC_GDPS_GeopotentialHeight_IsbL-0020_LatLon0.15_PT192H.grib2 2026-05-06 19:04 462K
20260506T12Z_MSC_GDPS_GeopotentialHeight_IsbL-0030_LatLon0.15_PT192H.grib2 2026-05-06 19:04 411K
20260506T12Z_MSC_GDPS_GeopotentialHeight_IsbL-0050_LatLon0.15_PT192H.grib2 2026-05-06 19:04 569K
20260506T12Z_MSC_GDPS_GeopotentialHeight_IsbL-0100_LatLon0.15_PT192H.grib2 2026-05-06 19:04 612K
20260506T12Z_MSC_GDPS_GeopotentialHeight_IsbL-0150_LatLon0.15_PT192H.grib2 2026-05-06 19:04 632K
20260506T12Z_MSC_GDPS_GeopotentialHeight_IsbL-0175_LatLon0.15_PT192H.grib2 2026-05-06 19:04 637K
20260506T12Z_MSC_GDPS_GeopotentialHeight_IsbL-0200_LatLon0.15_PT192H.grib2 2026-05-06 19:04 643K
20260506T12Z_MSC_GDPS_GeopotentialHeight_IsbL-0225_LatLon0.15_PT192H.grib2 2026-05-06 19:04 642K
20260506T12Z_MSC_GDPS_GeopotentialHeight_IsbL-0250_LatLon0.15_PT192H.grib2 2026-05-06 19:04 647K
20260506T12Z_MSC_GDPS_GeopotentialHeight_IsbL-0275_LatLon0.15_PT192H.grib2 2026-05-06 19:04 649K
20260506T12Z_MSC_GDPS_GeopotentialHeight_IsbL-0300_LatLon0.15_PT192H.grib2 2026-05-06 19:04 647K
20260506T12Z_MSC_GDPS_GeopotentialHeight_IsbL-0350_LatLon0.15_PT192H.grib2 2026-05-06 19:04 634K
20260506T12Z_MSC_GDPS_GeopotentialHeight_IsbL-0400_LatLon0.15_PT192H.grib2 2026-05-06 19:04 625K
20260506T12Z_MSC_GDPS_GeopotentialHeight_IsbL-0450_LatLon0.15_PT192H.grib2 2026-05-06 19:04 615K
20260506T12Z_MSC_GDPS_GeopotentialHeight_IsbL-0500_LatLon0.15_PT192H.grib2 2026-05-06 19:04 537K
20260506T12Z_MSC_GDPS_GeopotentialHeight_IsbL-0550_LatLon0.15_PT192H.grib2 2026-05-06 19:04 530K
20260506T12Z_MSC_GDPS_GeopotentialHeight_IsbL-0600_LatLon0.15_PT192H.grib2 2026-05-06 19:04 693K
20260506T12Z_MSC_GDPS_GeopotentialHeight_IsbL-0650_LatLon0.15_PT192H.grib2 2026-05-06 19:04 696K
20260506T12Z_MSC_GDPS_GeopotentialHeight_IsbL-0700_LatLon0.15_PT192H.grib2 2026-05-06 19:04 699K
20260506T12Z_MSC_GDPS_GeopotentialHeight_IsbL-0750_LatLon0.15_PT192H.grib2 2026-05-06 19:04 697K
20260506T12Z_MSC_GDPS_GeopotentialHeight_IsbL-0800_LatLon0.15_PT192H.grib2 2026-05-06 19:04 711K
20260506T12Z_MSC_GDPS_GeopotentialHeight_IsbL-0850_LatLon0.15_PT192H.grib2 2026-05-06 19:04 717K
20260506T12Z_MSC_GDPS_GeopotentialHeight_IsbL-0875_LatLon0.15_PT192H.grib2 2026-05-06 19:04 720K
20260506T12Z_MSC_GDPS_GeopotentialHeight_IsbL-0900_LatLon0.15_PT192H.grib2 2026-05-06 19:04 725K
20260506T12Z_MSC_GDPS_GeopotentialHeight_IsbL-0925_LatLon0.15_PT192H.grib2 2026-05-06 19:04 736K
20260506T12Z_MSC_GDPS_GeopotentialHeight_IsbL-0950_LatLon0.15_PT192H.grib2 2026-05-06 19:04 740K
20260506T12Z_MSC_GDPS_GeopotentialHeight_IsbL-0970_LatLon0.15_PT192H.grib2 2026-05-06 19:04 753K
20260506T12Z_MSC_GDPS_GeopotentialHeight_IsbL-0985_LatLon0.15_PT192H.grib2 2026-05-06 19:04 768K
20260506T12Z_MSC_GDPS_GeopotentialHeight_IsbL-1000_LatLon0.15_PT192H.grib2 2026-05-06 19:04 789K
20260506T12Z_MSC_GDPS_GeopotentialHeight_IsbL-1015_LatLon0.15_PT192H.grib2 2026-05-06 19:04 813K
20260506T12Z_MSC_GDPS_Humidex_Sfc_LatLon0.15_PT192H.grib2 2026-05-06 19:04 5.3M
20260506T12Z_MSC_GDPS_IcePellets-Accum12h_Sfc_LatLon0.15_PT192H.grib2 2026-05-06 19:04 54K
20260506T12Z_MSC_GDPS_IcePellets-Accum24h_Sfc_LatLon0.15_PT192H.grib2 2026-05-06 19:04 77K
20260506T12Z_MSC_GDPS_IcePellets-Accum6h_Sfc_LatLon0.15_PT192H.grib2 2026-05-06 19:04 45K
20260506T12Z_MSC_GDPS_IcePellets-Accum_Sfc_LatLon0.15_PT192H.grib2 2026-05-06 19:04 293K
20260506T12Z_MSC_GDPS_KIndex_Sfc_LatLon0.15_PT192H.grib2 2026-05-06 19:04 6.5M
20260506T12Z_MSC_GDPS_LatentHeatNetFlux_Sfc_LatLon0.15_PT192H.grib2 2026-05-06 19:04 553K
20260506T12Z_MSC_GDPS_LiftedIndex-MU-VT_IsbL-0500_LatLon0.15_PT192H.grib2 2026-05-06 19:04 5.4M
20260506T12Z_MSC_GDPS_NetLongwaveRadiationFlux-Accum_Sfc_LatLon0.15_PT192H.grib2 2026-05-06 19:04 889K
20260506T12Z_MSC_GDPS_NetShortwaveRadiationFlux-Accum_Sfc_LatLon0.15_PT192H.grib2 2026-05-06 19:04 846K
20260506T12Z_MSC_GDPS_O3MixingRatio_Sfc_LatLon0.15_PT192H.grib2 2026-05-06 18:22 1.9M
20260506T12Z_MSC_GDPS_O3_EAtm_LatLon0.15_PT192H.grib2 2026-05-06 18:22 2.4M
20260506T12Z_MSC_GDPS_PlanetaryBoundaryLayerHeight_Sfc_LatLon0.15_PT192H.grib2 2026-05-06 19:04 2.5M
20260506T12Z_MSC_GDPS_Precip-Accum12h_Sfc_LatLon0.15_PT192H.grib2 2026-05-06 19:04 4.1M
20260506T12Z_MSC_GDPS_Precip-Accum24h_Sfc_LatLon0.15_PT192H.grib2 2026-05-06 19:04 4.3M
20260506T12Z_MSC_GDPS_Precip-Accum6h_Sfc_LatLon0.15_PT192H.grib2 2026-05-06 19:04 3.9M
20260506T12Z_MSC_GDPS_Precip-Accum_Sfc_LatLon0.15_PT192H.grib2 2026-05-06 19:04 5.1M
20260506T12Z_MSC_GDPS_PrecipRate_Sfc_LatLon0.15_PT192H.grib2 2026-05-06 19:04 3.1M
20260506T12Z_MSC_GDPS_PrecipType-Instant_Sfc_LatLon0.15_PT192H.grib2 2026-05-06 19:04 1.6M
20260506T12Z_MSC_GDPS_Pressure_MSL_LatLon0.15_PT192H.grib2 2026-05-06 19:04 827K
20260506T12Z_MSC_GDPS_Pressure_PVU-1.5_LatLon0.15_PT192H.grib2 2026-05-06 19:04 5.8M
20260506T12Z_MSC_GDPS_Pressure_PVU-1_LatLon0.15_PT192H.grib2 2026-05-06 19:04 6.0M
20260506T12Z_MSC_GDPS_Pressure_PVU-2_LatLon0.15_PT192H.grib2 2026-05-06 19:04 5.7M
20260506T12Z_MSC_GDPS_Pressure_Sfc_LatLon0.15_PT192H.grib2 2026-05-06 19:04 1.1M
20260506T12Z_MSC_GDPS_RadiativeTemp_Sfc_LatLon0.15_PT192H.grib2 2026-05-06 19:04 498K
20260506T12Z_MSC_GDPS_Rain-Accum12h_Sfc_LatLon0.15_PT192H.grib2 2026-05-06 19:04 2.7M
20260506T12Z_MSC_GDPS_Rain-Accum24h_Sfc_LatLon0.15_PT192H.grib2 2026-05-06 19:04 3.0M
20260506T12Z_MSC_GDPS_Rain-Accum6h_Sfc_LatLon0.15_PT192H.grib2 2026-05-06 19:04 2.6M
20260506T12Z_MSC_GDPS_Rain-Accum_Sfc_LatLon0.15_PT192H.grib2 2026-05-06 19:04 4.1M
20260506T12Z_MSC_GDPS_RelativeHumidity_AGL-2m_LatLon0.15_PT192H.grib2 2026-05-06 19:04 1.1M
20260506T12Z_MSC_GDPS_RelativeHumidity_IsbL-0010_LatLon0.15_PT192H.grib2 2026-05-06 19:04 150K
20260506T12Z_MSC_GDPS_RelativeHumidity_IsbL-0020_LatLon0.15_PT192H.grib2 2026-05-06 19:04 122K
20260506T12Z_MSC_GDPS_RelativeHumidity_IsbL-0030_LatLon0.15_PT192H.grib2 2026-05-06 19:04 189K
20260506T12Z_MSC_GDPS_RelativeHumidity_IsbL-0050_LatLon0.15_PT192H.grib2 2026-05-06 19:04 336K
20260506T12Z_MSC_GDPS_RelativeHumidity_IsbL-0100_LatLon0.15_PT192H.grib2 2026-05-06 19:04 340K
20260506T12Z_MSC_GDPS_RelativeHumidity_IsbL-0150_LatLon0.15_PT192H.grib2 2026-05-06 19:04 685K
20260506T12Z_MSC_GDPS_RelativeHumidity_IsbL-0175_LatLon0.15_PT192H.grib2 2026-05-06 19:04 821K
20260506T12Z_MSC_GDPS_RelativeHumidity_IsbL-0200_LatLon0.15_PT192H.grib2 2026-05-06 19:04 727K
20260506T12Z_MSC_GDPS_RelativeHumidity_IsbL-0225_LatLon0.15_PT192H.grib2 2026-05-06 19:04 810K
20260506T12Z_MSC_GDPS_RelativeHumidity_IsbL-0250_LatLon0.15_PT192H.grib2 2026-05-06 19:04 886K
20260506T12Z_MSC_GDPS_RelativeHumidity_IsbL-0275_LatLon0.15_PT192H.grib2 2026-05-06 19:04 901K
20260506T12Z_MSC_GDPS_RelativeHumidity_IsbL-0300_LatLon0.15_PT192H.grib2 2026-05-06 19:04 941K
20260506T12Z_MSC_GDPS_RelativeHumidity_IsbL-0350_LatLon0.15_PT192H.grib2 2026-05-06 19:04 960K
20260506T12Z_MSC_GDPS_RelativeHumidity_IsbL-0400_LatLon0.15_PT192H.grib2 2026-05-06 19:04 1.0M
20260506T12Z_MSC_GDPS_RelativeHumidity_IsbL-0450_LatLon0.15_PT192H.grib2 2026-05-06 19:04 1.0M
20260506T12Z_MSC_GDPS_RelativeHumidity_IsbL-0500_LatLon0.15_PT192H.grib2 2026-05-06 19:04 1.0M
20260506T12Z_MSC_GDPS_RelativeHumidity_IsbL-0550_LatLon0.15_PT192H.grib2 2026-05-06 19:04 1.0M
20260506T12Z_MSC_GDPS_RelativeHumidity_IsbL-0600_LatLon0.15_PT192H.grib2 2026-05-06 19:04 1.1M
20260506T12Z_MSC_GDPS_RelativeHumidity_IsbL-0650_LatLon0.15_PT192H.grib2 2026-05-06 19:04 1.1M
20260506T12Z_MSC_GDPS_RelativeHumidity_IsbL-0700_LatLon0.15_PT192H.grib2 2026-05-06 19:04 1.1M
20260506T12Z_MSC_GDPS_RelativeHumidity_IsbL-0750_LatLon0.15_PT192H.grib2 2026-05-06 19:04 1.1M
20260506T12Z_MSC_GDPS_RelativeHumidity_IsbL-0800_LatLon0.15_PT192H.grib2 2026-05-06 19:04 1.2M
20260506T12Z_MSC_GDPS_RelativeHumidity_IsbL-0850_LatLon0.15_PT192H.grib2 2026-05-06 19:04 1.3M
20260506T12Z_MSC_GDPS_RelativeHumidity_IsbL-0875_LatLon0.15_PT192H.grib2 2026-05-06 19:04 1.2M
20260506T12Z_MSC_GDPS_RelativeHumidity_IsbL-0900_LatLon0.15_PT192H.grib2 2026-05-06 19:04 1.2M
20260506T12Z_MSC_GDPS_RelativeHumidity_IsbL-0925_LatLon0.15_PT192H.grib2 2026-05-06 19:04 1.2M
20260506T12Z_MSC_GDPS_RelativeHumidity_IsbL-0950_LatLon0.15_PT192H.grib2 2026-05-06 19:04 1.2M
20260506T12Z_MSC_GDPS_RelativeHumidity_IsbL-0970_LatLon0.15_PT192H.grib2 2026-05-06 19:04 1.1M
20260506T12Z_MSC_GDPS_RelativeHumidity_IsbL-0985_LatLon0.15_PT192H.grib2 2026-05-06 19:04 1.1M
20260506T12Z_MSC_GDPS_RelativeHumidity_IsbL-1000_LatLon0.15_PT192H.grib2 2026-05-06 19:04 1.1M
20260506T12Z_MSC_GDPS_RelativeHumidity_IsbL-1015_LatLon0.15_PT192H.grib2 2026-05-06 19:04 1.0M
20260506T12Z_MSC_GDPS_RelativeVorticity_IsbL-0200_LatLon0.15_PT192H.grib2 2026-05-06 19:04 1.2M
20260506T12Z_MSC_GDPS_RelativeVorticity_IsbL-0250_LatLon0.15_PT192H.grib2 2026-05-06 19:04 1.6M
20260506T12Z_MSC_GDPS_RelativeVorticity_IsbL-0500_LatLon0.15_PT192H.grib2 2026-05-06 19:04 1.2M
20260506T12Z_MSC_GDPS_RelativeVorticity_IsbL-0700_LatLon0.15_PT192H.grib2 2026-05-06 19:04 1.7M
20260506T12Z_MSC_GDPS_RelativeVorticity_IsbL-0850_LatLon0.15_PT192H.grib2 2026-05-06 19:04 1.6M
20260506T12Z_MSC_GDPS_Runoff-Accum_Sfc_LatLon0.15_PT192H.grib2 2026-05-06 19:04 128K
20260506T12Z_MSC_GDPS_SensibleHeatNetFlux_Sfc_LatLon0.15_PT192H.grib2 2026-05-06 19:04 483K
20260506T12Z_MSC_GDPS_ShowalterIndex_IsbL-0500_LatLon0.15_PT192H.grib2 2026-05-06 19:04 6.2M
20260506T12Z_MSC_GDPS_Snow-Accum12h_Sfc_LatLon0.15_PT192H.grib2 2026-05-06 19:04 1.5M
20260506T12Z_MSC_GDPS_Snow-Accum24h_Sfc_LatLon0.15_PT192H.grib2 2026-05-06 19:04 1.7M
20260506T12Z_MSC_GDPS_Snow-Accum6h_Sfc_LatLon0.15_PT192H.grib2 2026-05-06 19:04 1.4M
20260506T12Z_MSC_GDPS_Snow-Accum_Sfc_LatLon0.15_PT192H.grib2 2026-05-06 19:04 2.3M
20260506T12Z_MSC_GDPS_SnowDensity_Sfc_LatLon0.15_PT192H.grib2 2026-05-06 19:04 260K
20260506T12Z_MSC_GDPS_SnowDepth_Sfc_LatLon0.15_PT192H.grib2 2026-05-06 19:04 1.7M
20260506T12Z_MSC_GDPS_SoilTemp_DBS-0to10cm_LatLon0.15_PT192H.grib2 2026-05-06 19:04 516K
20260506T12Z_MSC_GDPS_SoilTemp_Sfc_LatLon0.15_PT192H.grib2 2026-05-06 19:04 576K
20260506T12Z_MSC_GDPS_SoilVolumetricIceContent_Sfc_LatLon0.15_PT192H.grib2 2026-05-06 19:04 171K
20260506T12Z_MSC_GDPS_SoilVolumetricWaterContent_DBS-0to10cm_LatLon0.15_PT192H.grib2 2026-05-06 19:04 605K
20260506T12Z_MSC_GDPS_SoilVolumetricWaterContent_DBS-0to1cm_LatLon0.15_PT192H.grib2 2026-05-06 19:04 647K
20260506T12Z_MSC_GDPS_SpecificHumidity_AGL-120m_LatLon0.15_PT192H.grib2 2026-05-06 19:04 1.1M
20260506T12Z_MSC_GDPS_SpecificHumidity_AGL-2m_LatLon0.15_PT192H.grib2 2026-05-06 19:04 1.2M
20260506T12Z_MSC_GDPS_SpecificHumidity_AGL-40m_LatLon0.15_PT192H.grib2 2026-05-06 19:04 1.1M
20260506T12Z_MSC_GDPS_SpecificHumidity_AGL-80m_LatLon0.15_PT192H.grib2 2026-05-06 19:04 1.1M
20260506T12Z_MSC_GDPS_SpecificHumidity_IsbL-0001_LatLon0.15_PT192H.grib2 2026-05-06 19:04 1.2M
20260506T12Z_MSC_GDPS_SpecificHumidity_IsbL-0005_LatLon0.15_PT192H.grib2 2026-05-06 19:04 1.0M
20260506T12Z_MSC_GDPS_SpecificHumidity_IsbL-0010_LatLon0.15_PT192H.grib2 2026-05-06 19:04 1.1M
20260506T12Z_MSC_GDPS_SpecificHumidity_IsbL-0020_LatLon0.15_PT192H.grib2 2026-05-06 19:04 1.2M
20260506T12Z_MSC_GDPS_SpecificHumidity_IsbL-0030_LatLon0.15_PT192H.grib2 2026-05-06 19:04 1.1M
20260506T12Z_MSC_GDPS_SpecificHumidity_IsbL-0050_LatLon0.15_PT192H.grib2 2026-05-06 19:04 1.5M
20260506T12Z_MSC_GDPS_SpecificHumidity_IsbL-0100_LatLon0.15_PT192H.grib2 2026-05-06 19:04 1.2M
20260506T12Z_MSC_GDPS_SpecificHumidity_IsbL-0150_LatLon0.15_PT192H.grib2 2026-05-06 19:04 1.3M
20260506T12Z_MSC_GDPS_SpecificHumidity_IsbL-0175_LatLon0.15_PT192H.grib2 2026-05-06 19:04 1.3M
20260506T12Z_MSC_GDPS_SpecificHumidity_IsbL-0200_LatLon0.15_PT192H.grib2 2026-05-06 19:04 1.3M
20260506T12Z_MSC_GDPS_SpecificHumidity_IsbL-0225_LatLon0.15_PT192H.grib2 2026-05-06 19:04 1.3M
20260506T12Z_MSC_GDPS_SpecificHumidity_IsbL-0250_LatLon0.15_PT192H.grib2 2026-05-06 19:04 1.5M
20260506T12Z_MSC_GDPS_SpecificHumidity_IsbL-0275_LatLon0.15_PT192H.grib2 2026-05-06 19:04 1.4M
20260506T12Z_MSC_GDPS_SpecificHumidity_IsbL-0300_LatLon0.15_PT192H.grib2 2026-05-06 19:04 1.3M
20260506T12Z_MSC_GDPS_SpecificHumidity_IsbL-0350_LatLon0.15_PT192H.grib2 2026-05-06 19:04 1.3M
20260506T12Z_MSC_GDPS_SpecificHumidity_IsbL-0400_LatLon0.15_PT192H.grib2 2026-05-06 19:04 1.5M
20260506T12Z_MSC_GDPS_SpecificHumidity_IsbL-0450_LatLon0.15_PT192H.grib2 2026-05-06 19:04 1.6M
20260506T12Z_MSC_GDPS_SpecificHumidity_IsbL-0500_LatLon0.15_PT192H.grib2 2026-05-06 19:04 1.5M
20260506T12Z_MSC_GDPS_SpecificHumidity_IsbL-0550_LatLon0.15_PT192H.grib2 2026-05-06 19:04 1.6M
20260506T12Z_MSC_GDPS_SpecificHumidity_IsbL-0600_LatLon0.15_PT192H.grib2 2026-05-06 19:04 1.8M
20260506T12Z_MSC_GDPS_SpecificHumidity_IsbL-0650_LatLon0.15_PT192H.grib2 2026-05-06 19:04 1.6M
20260506T12Z_MSC_GDPS_SpecificHumidity_IsbL-0700_LatLon0.15_PT192H.grib2 2026-05-06 19:04 1.7M
20260506T12Z_MSC_GDPS_SpecificHumidity_IsbL-0750_LatLon0.15_PT192H.grib2 2026-05-06 19:04 1.8M
20260506T12Z_MSC_GDPS_SpecificHumidity_IsbL-0800_LatLon0.15_PT192H.grib2 2026-05-06 19:04 1.9M
20260506T12Z_MSC_GDPS_SpecificHumidity_IsbL-0850_LatLon0.15_PT192H.grib2 2026-05-06 19:04 2.0M
20260506T12Z_MSC_GDPS_SpecificHumidity_IsbL-0875_LatLon0.15_PT192H.grib2 2026-05-06 19:04 2.0M
20260506T12Z_MSC_GDPS_SpecificHumidity_IsbL-0900_LatLon0.15_PT192H.grib2 2026-05-06 19:04 1.6M
20260506T12Z_MSC_GDPS_SpecificHumidity_IsbL-0925_LatLon0.15_PT192H.grib2 2026-05-06 19:04 1.6M
20260506T12Z_MSC_GDPS_SpecificHumidity_IsbL-0950_LatLon0.15_PT192H.grib2 2026-05-06 19:04 1.6M
20260506T12Z_MSC_GDPS_SpecificHumidity_IsbL-0970_LatLon0.15_PT192H.grib2 2026-05-06 19:04 1.6M
20260506T12Z_MSC_GDPS_SpecificHumidity_IsbL-0985_LatLon0.15_PT192H.grib2 2026-05-06 19:04 1.5M
20260506T12Z_MSC_GDPS_SpecificHumidity_IsbL-1000_LatLon0.15_PT192H.grib2 2026-05-06 19:04 1.5M
20260506T12Z_MSC_GDPS_SpecificHumidity_IsbL-1015_LatLon0.15_PT192H.grib2 2026-05-06 19:04 1.5M
20260506T12Z_MSC_GDPS_SpecificHumidity_Sfc_LatLon0.15_PT192H.grib2 2026-05-06 19:04 692K
20260506T12Z_MSC_GDPS_Thickness_IsbL-0850to0700_LatLon0.15_PT192H.grib2 2026-05-06 19:04 471K
20260506T12Z_MSC_GDPS_Thickness_IsbL-1000to0500_LatLon0.15_PT192H.grib2 2026-05-06 19:04 371K
20260506T12Z_MSC_GDPS_Thickness_IsbL-1000to0850_LatLon0.15_PT192H.grib2 2026-05-06 19:04 487K
20260506T12Z_MSC_GDPS_TotalCloudCover_Sfc_LatLon0.15_PT192H.grib2 2026-05-06 19:04 851K
20260506T12Z_MSC_GDPS_TotalTotalsIndex_Sfc_LatLon0.15_PT192H.grib2 2026-05-06 19:04 6.2M
20260506T12Z_MSC_GDPS_UVIndex-ClearSky_Sfc_LatLon0.15_PT192H.grib2 2026-05-06 18:22 1.0M
20260506T12Z_MSC_GDPS_UVIndex_Sfc_LatLon0.15_PT192H.grib2 2026-05-06 18:22 1.5M
20260506T12Z_MSC_GDPS_UpwardLongwaveRadiationFlux_NTAtm_LatLon0.15_PT192H.grib2 2026-05-06 19:04 851K
20260506T12Z_MSC_GDPS_VerticalVelocity_IsbL-0200_LatLon0.15_PT192H.grib2 2026-05-06 19:04 1.1M
20260506T12Z_MSC_GDPS_VerticalVelocity_IsbL-0250_LatLon0.15_PT192H.grib2 2026-05-06 19:04 1.1M
20260506T12Z_MSC_GDPS_VerticalVelocity_IsbL-0500_LatLon0.15_PT192H.grib2 2026-05-06 19:04 1.0M
20260506T12Z_MSC_GDPS_VerticalVelocity_IsbL-0600_LatLon0.15_PT192H.grib2 2026-05-06 19:04 1.1M
20260506T12Z_MSC_GDPS_VerticalVelocity_IsbL-0700_LatLon0.15_PT192H.grib2 2026-05-06 19:04 1.2M
20260506T12Z_MSC_GDPS_VerticalVelocity_IsbL-0850_LatLon0.15_PT192H.grib2 2026-05-06 19:04 1.6M
20260506T12Z_MSC_GDPS_WindChill_Sfc_LatLon0.15_PT192H.grib2 2026-05-06 19:04 5.3M
20260506T12Z_MSC_GDPS_WindDir_AGL-10m_LatLon0.15_PT192H.grib2 2026-05-06 19:04 1.3M
20260506T12Z_MSC_GDPS_WindDir_AGL-120m_LatLon0.15_PT192H.grib2 2026-05-06 19:04 1.3M
20260506T12Z_MSC_GDPS_WindDir_AGL-40m_LatLon0.15_PT192H.grib2 2026-05-06 19:04 1.4M
20260506T12Z_MSC_GDPS_WindDir_AGL-80m_LatLon0.15_PT192H.grib2 2026-05-06 19:04 1.4M
20260506T12Z_MSC_GDPS_WindDir_IsbL-0001_LatLon0.15_PT192H.grib2 2026-05-06 19:04 645K
20260506T12Z_MSC_GDPS_WindDir_IsbL-0005_LatLon0.15_PT192H.grib2 2026-05-06 19:04 809K
20260506T12Z_MSC_GDPS_WindDir_IsbL-0010_LatLon0.15_PT192H.grib2 2026-05-06 19:04 821K
20260506T12Z_MSC_GDPS_WindDir_IsbL-0020_LatLon0.15_PT192H.grib2 2026-05-06 19:04 919K
20260506T12Z_MSC_GDPS_WindDir_IsbL-0030_LatLon0.15_PT192H.grib2 2026-05-06 19:04 947K
20260506T12Z_MSC_GDPS_WindDir_IsbL-0050_LatLon0.15_PT192H.grib2 2026-05-06 19:04 972K
20260506T12Z_MSC_GDPS_WindDir_IsbL-0100_LatLon0.15_PT192H.grib2 2026-05-06 19:04 1.0M
20260506T12Z_MSC_GDPS_WindDir_IsbL-0150_LatLon0.15_PT192H.grib2 2026-05-06 19:04 1.0M
20260506T12Z_MSC_GDPS_WindDir_IsbL-0175_LatLon0.15_PT192H.grib2 2026-05-06 19:04 1.1M
20260506T12Z_MSC_GDPS_WindDir_IsbL-0200_LatLon0.15_PT192H.grib2 2026-05-06 19:04 1.1M
20260506T12Z_MSC_GDPS_WindDir_IsbL-0225_LatLon0.15_PT192H.grib2 2026-05-06 19:04 1.1M
20260506T12Z_MSC_GDPS_WindDir_IsbL-0250_LatLon0.15_PT192H.grib2 2026-05-06 19:04 1.1M
20260506T12Z_MSC_GDPS_WindDir_IsbL-0275_LatLon0.15_PT192H.grib2 2026-05-06 19:04 1.2M
20260506T12Z_MSC_GDPS_WindDir_IsbL-0300_LatLon0.15_PT192H.grib2 2026-05-06 19:04 1.2M
20260506T12Z_MSC_GDPS_WindDir_IsbL-0350_LatLon0.15_PT192H.grib2 2026-05-06 19:04 1.2M
20260506T12Z_MSC_GDPS_WindDir_IsbL-0400_LatLon0.15_PT192H.grib2 2026-05-06 19:04 1.3M
20260506T12Z_MSC_GDPS_WindDir_IsbL-0450_LatLon0.15_PT192H.grib2 2026-05-06 19:04 1.3M
20260506T12Z_MSC_GDPS_WindDir_IsbL-0500_LatLon0.15_PT192H.grib2 2026-05-06 19:04 1.4M
20260506T12Z_MSC_GDPS_WindDir_IsbL-0550_LatLon0.15_PT192H.grib2 2026-05-06 19:04 1.4M
20260506T12Z_MSC_GDPS_WindDir_IsbL-0600_LatLon0.15_PT192H.grib2 2026-05-06 19:04 1.5M
20260506T12Z_MSC_GDPS_WindDir_IsbL-0650_LatLon0.15_PT192H.grib2 2026-05-06 19:04 1.5M
20260506T12Z_MSC_GDPS_WindDir_IsbL-0700_LatLon0.15_PT192H.grib2 2026-05-06 19:04 1.6M
20260506T12Z_MSC_GDPS_WindDir_IsbL-0750_LatLon0.15_PT192H.grib2 2026-05-06 19:04 1.7M
20260506T12Z_MSC_GDPS_WindDir_IsbL-0800_LatLon0.15_PT192H.grib2 2026-05-06 19:04 1.8M
20260506T12Z_MSC_GDPS_WindDir_IsbL-0850_LatLon0.15_PT192H.grib2 2026-05-06 19:04 1.9M
20260506T12Z_MSC_GDPS_WindDir_IsbL-0875_LatLon0.15_PT192H.grib2 2026-05-06 19:04 1.9M
20260506T12Z_MSC_GDPS_WindDir_IsbL-0900_LatLon0.15_PT192H.grib2 2026-05-06 19:04 2.0M
20260506T12Z_MSC_GDPS_WindDir_IsbL-0925_LatLon0.15_PT192H.grib2 2026-05-06 19:04 2.0M
20260506T12Z_MSC_GDPS_WindDir_IsbL-0950_LatLon0.15_PT192H.grib2 2026-05-06 19:04 2.0M
20260506T12Z_MSC_GDPS_WindDir_IsbL-0970_LatLon0.15_PT192H.grib2 2026-05-06 19:04 2.0M
20260506T12Z_MSC_GDPS_WindDir_IsbL-0985_LatLon0.15_PT192H.grib2 2026-05-06 19:04 2.0M
20260506T12Z_MSC_GDPS_WindDir_IsbL-1000_LatLon0.15_PT192H.grib2 2026-05-06 19:04 2.0M
20260506T12Z_MSC_GDPS_WindDir_IsbL-1015_LatLon0.15_PT192H.grib2 2026-05-06 19:04 2.0M
20260506T12Z_MSC_GDPS_WindGust-Max_AGL-10m_LatLon0.15_PT192H.grib2 2026-05-06 19:04 2.2M
20260506T12Z_MSC_GDPS_WindGust-Min_AGL-10m_LatLon0.15_PT192H.grib2 2026-05-06 19:04 2.2M
20260506T12Z_MSC_GDPS_WindGust_AGL-10m_LatLon0.15_PT192H.grib2 2026-05-06 19:04 2.2M
20260506T12Z_MSC_GDPS_WindSpeed_AGL-10m_LatLon0.15_PT192H.grib2 2026-05-06 19:04 1.1M
20260506T12Z_MSC_GDPS_WindSpeed_AGL-120m_LatLon0.15_PT192H.grib2 2026-05-06 19:04 1.2M
20260506T12Z_MSC_GDPS_WindSpeed_AGL-40m_LatLon0.15_PT192H.grib2 2026-05-06 19:04 1.2M
20260506T12Z_MSC_GDPS_WindSpeed_AGL-80m_LatLon0.15_PT192H.grib2 2026-05-06 19:04 1.2M
20260506T12Z_MSC_GDPS_WindSpeed_IsbL-0001_LatLon0.15_PT192H.grib2 2026-05-06 19:04 510K
20260506T12Z_MSC_GDPS_WindSpeed_IsbL-0005_LatLon0.15_PT192H.grib2 2026-05-06 19:04 696K
20260506T12Z_MSC_GDPS_WindSpeed_IsbL-0010_LatLon0.15_PT192H.grib2 2026-05-06 19:04 706K
20260506T12Z_MSC_GDPS_WindSpeed_IsbL-0020_LatLon0.15_PT192H.grib2 2026-05-06 19:04 657K
20260506T12Z_MSC_GDPS_WindSpeed_IsbL-0030_LatLon0.15_PT192H.grib2 2026-05-06 19:04 664K
20260506T12Z_MSC_GDPS_WindSpeed_IsbL-0050_LatLon0.15_PT192H.grib2 2026-05-06 19:04 890K
20260506T12Z_MSC_GDPS_WindSpeed_IsbL-0100_LatLon0.15_PT192H.grib2 2026-05-06 19:04 1.1M
20260506T12Z_MSC_GDPS_WindSpeed_IsbL-0150_LatLon0.15_PT192H.grib2 2026-05-06 19:04 1.0M
20260506T12Z_MSC_GDPS_WindSpeed_IsbL-0175_LatLon0.15_PT192H.grib2 2026-05-06 19:04 1.0M
20260506T12Z_MSC_GDPS_WindSpeed_IsbL-0200_LatLon0.15_PT192H.grib2 2026-05-06 19:04 1.1M
20260506T12Z_MSC_GDPS_WindSpeed_IsbL-0225_LatLon0.15_PT192H.grib2 2026-05-06 19:04 1.1M
20260506T12Z_MSC_GDPS_WindSpeed_IsbL-0250_LatLon0.15_PT192H.grib2 2026-05-06 19:04 1.1M
20260506T12Z_MSC_GDPS_WindSpeed_IsbL-0275_LatLon0.15_PT192H.grib2 2026-05-06 19:04 1.1M
20260506T12Z_MSC_GDPS_WindSpeed_IsbL-0300_LatLon0.15_PT192H.grib2 2026-05-06 19:04 1.1M
20260506T12Z_MSC_GDPS_WindSpeed_IsbL-0350_LatLon0.15_PT192H.grib2 2026-05-06 19:04 1.1M
20260506T12Z_MSC_GDPS_WindSpeed_IsbL-0400_LatLon0.15_PT192H.grib2 2026-05-06 19:04 1.1M
20260506T12Z_MSC_GDPS_WindSpeed_IsbL-0450_LatLon0.15_PT192H.grib2 2026-05-06 19:04 1.1M
20260506T12Z_MSC_GDPS_WindSpeed_IsbL-0500_LatLon0.15_PT192H.grib2 2026-05-06 19:04 1.1M
20260506T12Z_MSC_GDPS_WindSpeed_IsbL-0550_LatLon0.15_PT192H.grib2 2026-05-06 19:04 1.1M
20260506T12Z_MSC_GDPS_WindSpeed_IsbL-0600_LatLon0.15_PT192H.grib2 2026-05-06 19:04 1.4M
20260506T12Z_MSC_GDPS_WindSpeed_IsbL-0650_LatLon0.15_PT192H.grib2 2026-05-06 19:04 1.5M
20260506T12Z_MSC_GDPS_WindSpeed_IsbL-0700_LatLon0.15_PT192H.grib2 2026-05-06 19:04 1.5M
20260506T12Z_MSC_GDPS_WindSpeed_IsbL-0750_LatLon0.15_PT192H.grib2 2026-05-06 19:04 1.6M
20260506T12Z_MSC_GDPS_WindSpeed_IsbL-0800_LatLon0.15_PT192H.grib2 2026-05-06 19:04 1.6M
20260506T12Z_MSC_GDPS_WindSpeed_IsbL-0850_LatLon0.15_PT192H.grib2 2026-05-06 19:04 1.7M
20260506T12Z_MSC_GDPS_WindSpeed_IsbL-0875_LatLon0.15_PT192H.grib2 2026-05-06 19:04 1.8M
20260506T12Z_MSC_GDPS_WindSpeed_IsbL-0900_LatLon0.15_PT192H.grib2 2026-05-06 19:04 1.8M
20260506T12Z_MSC_GDPS_WindSpeed_IsbL-0925_LatLon0.15_PT192H.grib2 2026-05-06 19:04 1.8M
20260506T12Z_MSC_GDPS_WindSpeed_IsbL-0950_LatLon0.15_PT192H.grib2 2026-05-06 19:04 1.9M
20260506T12Z_MSC_GDPS_WindSpeed_IsbL-0970_LatLon0.15_PT192H.grib2 2026-05-06 19:04 1.9M
20260506T12Z_MSC_GDPS_WindSpeed_IsbL-0985_LatLon0.15_PT192H.grib2 2026-05-06 19:04 1.8M
20260506T12Z_MSC_GDPS_WindSpeed_IsbL-1000_LatLon0.15_PT192H.grib2 2026-05-06 19:04 1.8M
20260506T12Z_MSC_GDPS_WindSpeed_IsbL-1015_LatLon0.15_PT192H.grib2 2026-05-06 19:04 1.8M
20260506T12Z_MSC_GDPS_WindU_AGL-10m_LatLon0.15_PT192H.grib2 2026-05-06 19:04 1.6M
20260506T12Z_MSC_GDPS_WindU_AGL-120m_LatLon0.15_PT192H.grib2 2026-05-06 19:04 964K
20260506T12Z_MSC_GDPS_WindU_AGL-40m_LatLon0.15_PT192H.grib2 2026-05-06 19:04 958K
20260506T12Z_MSC_GDPS_WindU_AGL-80m_LatLon0.15_PT192H.grib2 2026-05-06 19:04 963K
20260506T12Z_MSC_GDPS_WindU_IsbL-0001_LatLon0.15_PT192H.grib2 2026-05-06 19:04 601K
20260506T12Z_MSC_GDPS_WindU_IsbL-0005_LatLon0.15_PT192H.grib2 2026-05-06 19:04 694K
20260506T12Z_MSC_GDPS_WindU_IsbL-0010_LatLon0.15_PT192H.grib2 2026-05-06 19:04 703K
20260506T12Z_MSC_GDPS_WindU_IsbL-0020_LatLon0.15_PT192H.grib2 2026-05-06 19:04 726K
20260506T12Z_MSC_GDPS_WindU_IsbL-0030_LatLon0.15_PT192H.grib2 2026-05-06 19:04 732K
20260506T12Z_MSC_GDPS_WindU_IsbL-0050_LatLon0.15_PT192H.grib2 2026-05-06 19:04 758K
20260506T12Z_MSC_GDPS_WindU_IsbL-0100_LatLon0.15_PT192H.grib2 2026-05-06 19:04 923K
20260506T12Z_MSC_GDPS_WindU_IsbL-0150_LatLon0.15_PT192H.grib2 2026-05-06 19:04 1.0M
20260506T12Z_MSC_GDPS_WindU_IsbL-0175_LatLon0.15_PT192H.grib2 2026-05-06 19:04 1.0M
20260506T12Z_MSC_GDPS_WindU_IsbL-0200_LatLon0.15_PT192H.grib2 2026-05-06 19:04 848K
20260506T12Z_MSC_GDPS_WindU_IsbL-0225_LatLon0.15_PT192H.grib2 2026-05-06 19:04 858K
20260506T12Z_MSC_GDPS_WindU_IsbL-0250_LatLon0.15_PT192H.grib2 2026-05-06 19:04 859K
20260506T12Z_MSC_GDPS_WindU_IsbL-0275_LatLon0.15_PT192H.grib2 2026-05-06 19:04 887K
20260506T12Z_MSC_GDPS_WindU_IsbL-0300_LatLon0.15_PT192H.grib2 2026-05-06 19:04 878K
20260506T12Z_MSC_GDPS_WindU_IsbL-0350_LatLon0.15_PT192H.grib2 2026-05-06 19:04 896K
20260506T12Z_MSC_GDPS_WindU_IsbL-0400_LatLon0.15_PT192H.grib2 2026-05-06 19:04 1.1M
20260506T12Z_MSC_GDPS_WindU_IsbL-0450_LatLon0.15_PT192H.grib2 2026-05-06 19:04 1.1M
20260506T12Z_MSC_GDPS_WindU_IsbL-0500_LatLon0.15_PT192H.grib2 2026-05-06 19:04 1.1M
20260506T12Z_MSC_GDPS_WindU_IsbL-0550_LatLon0.15_PT192H.grib2 2026-05-06 19:04 1.1M
20260506T12Z_MSC_GDPS_WindU_IsbL-0600_LatLon0.15_PT192H.grib2 2026-05-06 19:04 1.2M
20260506T12Z_MSC_GDPS_WindU_IsbL-0650_LatLon0.15_PT192H.grib2 2026-05-06 19:04 1.2M
20260506T12Z_MSC_GDPS_WindU_IsbL-0700_LatLon0.15_PT192H.grib2 2026-05-06 19:04 1.2M
20260506T12Z_MSC_GDPS_WindU_IsbL-0750_LatLon0.15_PT192H.grib2 2026-05-06 19:04 1.3M
20260506T12Z_MSC_GDPS_WindU_IsbL-0800_LatLon0.15_PT192H.grib2 2026-05-06 19:04 1.4M
20260506T12Z_MSC_GDPS_WindU_IsbL-0850_LatLon0.15_PT192H.grib2 2026-05-06 19:04 1.4M
20260506T12Z_MSC_GDPS_WindU_IsbL-0875_LatLon0.15_PT192H.grib2 2026-05-06 19:04 1.4M
20260506T12Z_MSC_GDPS_WindU_IsbL-0900_LatLon0.15_PT192H.grib2 2026-05-06 19:04 1.5M
20260506T12Z_MSC_GDPS_WindU_IsbL-0925_LatLon0.15_PT192H.grib2 2026-05-06 19:04 1.4M
20260506T12Z_MSC_GDPS_WindU_IsbL-0950_LatLon0.15_PT192H.grib2 2026-05-06 19:04 1.4M
20260506T12Z_MSC_GDPS_WindU_IsbL-0970_LatLon0.15_PT192H.grib2 2026-05-06 19:04 1.4M
20260506T12Z_MSC_GDPS_WindU_IsbL-0985_LatLon0.15_PT192H.grib2 2026-05-06 19:04 1.4M
20260506T12Z_MSC_GDPS_WindU_IsbL-1000_LatLon0.15_PT192H.grib2 2026-05-06 19:04 1.7M
20260506T12Z_MSC_GDPS_WindU_IsbL-1015_LatLon0.15_PT192H.grib2 2026-05-06 19:04 1.6M
20260506T12Z_MSC_GDPS_WindV_AGL-10m_LatLon0.15_PT192H.grib2 2026-05-06 19:04 1.5M
20260506T12Z_MSC_GDPS_WindV_AGL-120m_LatLon0.15_PT192H.grib2 2026-05-06 19:04 964K
20260506T12Z_MSC_GDPS_WindV_AGL-40m_LatLon0.15_PT192H.grib2 2026-05-06 19:04 958K
20260506T12Z_MSC_GDPS_WindV_AGL-80m_LatLon0.15_PT192H.grib2 2026-05-06 19:04 964K
20260506T12Z_MSC_GDPS_WindV_IsbL-0001_LatLon0.15_PT192H.grib2 2026-05-06 19:04 568K
20260506T12Z_MSC_GDPS_WindV_IsbL-0005_LatLon0.15_PT192H.grib2 2026-05-06 19:04 616K
20260506T12Z_MSC_GDPS_WindV_IsbL-0010_LatLon0.15_PT192H.grib2 2026-05-06 19:04 630K
20260506T12Z_MSC_GDPS_WindV_IsbL-0020_LatLon0.15_PT192H.grib2 2026-05-06 19:04 660K
20260506T12Z_MSC_GDPS_WindV_IsbL-0030_LatLon0.15_PT192H.grib2 2026-05-06 19:04 853K
20260506T12Z_MSC_GDPS_WindV_IsbL-0050_LatLon0.15_PT192H.grib2 2026-05-06 19:04 892K
20260506T12Z_MSC_GDPS_WindV_IsbL-0100_LatLon0.15_PT192H.grib2 2026-05-06 19:04 1.1M
20260506T12Z_MSC_GDPS_WindV_IsbL-0150_LatLon0.15_PT192H.grib2 2026-05-06 19:04 1.0M
20260506T12Z_MSC_GDPS_WindV_IsbL-0175_LatLon0.15_PT192H.grib2 2026-05-06 19:04 1.0M
20260506T12Z_MSC_GDPS_WindV_IsbL-0200_LatLon0.15_PT192H.grib2 2026-05-06 19:04 845K
20260506T12Z_MSC_GDPS_WindV_IsbL-0225_LatLon0.15_PT192H.grib2 2026-05-06 19:04 854K
20260506T12Z_MSC_GDPS_WindV_IsbL-0250_LatLon0.15_PT192H.grib2 2026-05-06 19:04 914K
20260506T12Z_MSC_GDPS_WindV_IsbL-0275_LatLon0.15_PT192H.grib2 2026-05-06 19:04 938K
20260506T12Z_MSC_GDPS_WindV_IsbL-0300_LatLon0.15_PT192H.grib2 2026-05-06 19:04 870K
20260506T12Z_MSC_GDPS_WindV_IsbL-0350_LatLon0.15_PT192H.grib2 2026-05-06 19:04 886K
20260506T12Z_MSC_GDPS_WindV_IsbL-0400_LatLon0.15_PT192H.grib2 2026-05-06 19:04 886K
20260506T12Z_MSC_GDPS_WindV_IsbL-0450_LatLon0.15_PT192H.grib2 2026-05-06 19:04 888K
20260506T12Z_MSC_GDPS_WindV_IsbL-0500_LatLon0.15_PT192H.grib2 2026-05-06 19:04 894K
20260506T12Z_MSC_GDPS_WindV_IsbL-0550_LatLon0.15_PT192H.grib2 2026-05-06 19:04 1.1M
20260506T12Z_MSC_GDPS_WindV_IsbL-0600_LatLon0.15_PT192H.grib2 2026-05-06 19:04 1.1M
20260506T12Z_MSC_GDPS_WindV_IsbL-0650_LatLon0.15_PT192H.grib2 2026-05-06 19:04 1.2M
20260506T12Z_MSC_GDPS_WindV_IsbL-0700_LatLon0.15_PT192H.grib2 2026-05-06 19:04 1.2M
20260506T12Z_MSC_GDPS_WindV_IsbL-0750_LatLon0.15_PT192H.grib2 2026-05-06 19:04 1.3M
20260506T12Z_MSC_GDPS_WindV_IsbL-0800_LatLon0.15_PT192H.grib2 2026-05-06 19:04 1.3M
20260506T12Z_MSC_GDPS_WindV_IsbL-0850_LatLon0.15_PT192H.grib2 2026-05-06 19:04 1.4M
20260506T12Z_MSC_GDPS_WindV_IsbL-0875_LatLon0.15_PT192H.grib2 2026-05-06 19:04 1.4M
20260506T12Z_MSC_GDPS_WindV_IsbL-0900_LatLon0.15_PT192H.grib2 2026-05-06 19:04 1.4M
20260506T12Z_MSC_GDPS_WindV_IsbL-0925_LatLon0.15_PT192H.grib2 2026-05-06 19:04 1.4M
20260506T12Z_MSC_GDPS_WindV_IsbL-0950_LatLon0.15_PT192H.grib2 2026-05-06 19:04 1.4M
20260506T12Z_MSC_GDPS_WindV_IsbL-0970_LatLon0.15_PT192H.grib2 2026-05-06 19:04 1.4M
20260506T12Z_MSC_GDPS_WindV_IsbL-0985_LatLon0.15_PT192H.grib2 2026-05-06 19:04 1.4M
20260506T12Z_MSC_GDPS_WindV_IsbL-1000_LatLon0.15_PT192H.grib2 2026-05-06 19:04 1.7M
20260506T12Z_MSC_GDPS_WindV_IsbL-1015_LatLon0.15_PT192H.grib2 2026-05-06 19:04 1.6M